Weather in Meaux

France     48°57′25″N   2°52′35″E
temp.,
°C
wind,
m/s
gust,
m/s
humid.,
%
clouds,
%
prec.,
mm/h
press.,
hPa
HPBL,
m
24 july, sat
sat2423:00+20e4118539 0.0 1009281
02:00+18se399530 1.5 1009214
05:00+17s259831 1.7 1008121
08:00+18ssw469320 4.3 1009372
11:00+21sw567231 0.0 1010879
14:00+24sw5757100 0.0 10091378
17:00+25sw575127 0.0 10091986
20:00+21sw5106690 0.2 1009471
25 july, sun
sun2523:00+18wsw2368100 0.1 101056
02:00+16s3988100 0.4 1010271
05:00+15sse4897100 4.8 1009288
08:00+16s489652 7.4 1009370
11:00+20ssw5879100 0.7 1008882
14:00+20s5779100 2.8 10081234
17:00+21ssw687276 1.7 10081273
20:00+20sw478326 3.9 1008421
26 july, mon
mon2623:00+17w3593100 0.1 1010112
02:00+15w36965 0.1 1011122
05:00+14sw35962 0.0 101190
08:00+15sw36935 0.0 1012251
11:00+20wsw567566 0.1 1013968
14:00+22wsw466294 0.3 10131543
17:00+22wnw467199 0.6 1013655
20:00+21wnw257712 1.5 1013150
27 july, tue
tue2723:00+16ssw0090100 2.0 101411
02:00+16s2289100 2.2 101426
05:00+15ssw2295100 2.1 101347
08:00+15e4696100 5.7 1013118
11:00+18wsw2384100 0.1 1014502
14:00+22sw456753 1.0 10141277
17:00+23wsw465879 1.0 10131585
20:00+21nnw247322 1.3 101373
28 july, wed
wed2823:00+16wnw228886 0.2 101513
02:00+15wnw229248 0.2 101516
05:00+14wnw229416 0.0 101521
08:00+15wnw24895 0.0 1016186
11:00+19w246810 0.0 1016791
14:00+22sw355588 0.0 10161682
17:00+22s3465100 0.0 1015392
20:00+18nnw367846 0.3 1016119